JZR103 OBBI-OKKK

Flight info

Callsign JZR103
Flight time 0h 50m
Altitude 26000
Route BHR345/30R BHR A453 KUMBO/N0371F240 A453 DEBTI
Aircraft A20N/M-SDE2E3FGHIRWXY/LB1

Departure

Time 2026-05-04 17:14
Airport Bahrain International Airport (OBBI)

Arrival

Time 2026-05-04 18:05
Airport Kuwait International Airport (OKKK)
Time Latitude Longitude Altitude Speed Heading
2026-05-04 16:24 26.26936 50.62836 20 ft 0 kts 212°
2026-05-04 17:03 26.26942 50.62840 20 ft 1 kts 212°
2026-05-04 17:04 26.26956 50.62849 20 ft 1 kts 214°
2026-05-04 17:04 26.26969 50.62859 21 ft 1 kts 214°
2026-05-04 17:05 26.26981 50.62869 22 ft 1 kts 210°
2026-05-04 17:05 26.27006 50.62878 24 ft 2 kts 177°
2026-05-04 17:06 26.27031 50.62870 23 ft 2 kts 143°
2026-05-04 17:06 26.27037 50.62865 21 ft 0 kts 136°
2026-05-04 17:08 26.27036 50.62867 22 ft 1 kts 129°
2026-05-04 17:09 26.27044 50.62886 24 ft 5 kts 38°
2026-05-04 17:09 26.27095 50.62914 24 ft 11 kts 46°
2026-05-04 17:09 26.27080 50.63015 24 ft 17 kts 123°
2026-05-04 17:10 26.26919 50.63300 19 ft 25 kts 121°
2026-05-04 17:10 26.26644 50.63765 21 ft 29 kts 124°
2026-05-04 17:11 26.26513 50.63997 21 ft 27 kts 122°
2026-05-04 17:11 26.26414 50.64169 19 ft 27 kts 123°
2026-05-04 17:11 26.26200 50.64543 20 ft 24 kts 122°
2026-05-04 17:12 26.26105 50.64706 21 ft 26 kts 122°
2026-05-04 17:12 26.26025 50.64928 20 ft 2 kts 64°
2026-05-04 17:13 26.26179 50.64929 17 ft 14 kts 307°
2026-05-04 17:14 26.26556 50.64268 14 ft 110 kts 302°
2026-05-04 17:14 26.26870 50.63719 16 ft 142 kts 302°
2026-05-04 17:14 26.28098 50.61771 782 ft 159 kts 326°
2026-05-04 17:15 26.29114 50.61347 1345 ft 156 kts 347°
2026-05-04 17:15 26.31315 50.60759 2263 ft 179 kts 348°
2026-05-04 17:16 26.33984 50.60026 2925 ft 221 kts 346°
2026-05-04 17:16 26.38946 50.58454 4641 ft 258 kts 344°
2026-05-04 17:17 26.40678 50.57900 5454 ft 261 kts 344°
2026-05-04 17:17 26.45994 50.56220 7861 ft 268 kts 342°
2026-05-04 17:18 26.47797 50.55652 8646 ft 271 kts 342°
2026-05-04 17:18 26.51449 50.54500 10172 ft 278 kts 341°
2026-05-04 17:19 26.55438 50.53233 10705 ft 321 kts 342°
2026-05-04 17:19 26.59874 50.51834 11864 ft 335 kts 342°
2026-05-04 17:20 26.64325 50.50430 13234 ft 343 kts 342°
2026-05-04 17:20 26.68933 50.48824 14472 ft 351 kts 334°
2026-05-04 17:20 26.71070 50.47497 15065 ft 353 kts 323°
2026-05-04 17:21 26.74775 50.43814 16269 ft 361 kts 315°
2026-05-04 17:21 26.78465 50.39912 17451 ft 370 kts 315°
2026-05-04 17:22 26.80345 50.37926 18038 ft 374 kts 315°
2026-05-04 17:22 26.82244 50.35918 18580 ft 377 kts 315°
2026-05-04 17:23 26.88011 50.29808 20245 ft 384 kts 314°
2026-05-04 17:23 26.89957 50.27744 20786 ft 387 kts 314°
2026-05-04 17:23 26.93869 50.23592 21949 ft 391 kts 313°
2026-05-04 17:24 26.95869 50.21466 22468 ft 394 kts 313°
2026-05-04 17:24 27.01912 50.15035 23925 ft 403 kts 313°
2026-05-04 17:25 27.03949 50.12866 24399 ft 404 kts 312°
2026-05-04 17:25 27.07680 50.08155 25284 ft 406 kts 307°
2026-05-04 17:26 27.11355 50.03329 25779 ft 406 kts 306°
2026-05-04 17:26 27.16863 49.96089 25793 ft 407 kts 307°
2026-05-04 17:27 27.20543 49.91243 25796 ft 408 kts 307°
2026-05-04 17:27 27.24178 49.86450 25796 ft 408 kts 307°
2026-05-04 17:28 27.27853 49.81598 25799 ft 408 kts 307°
2026-05-04 17:29 27.33357 49.74320 25788 ft 408 kts 307°
2026-05-04 17:29 27.38882 49.67001 25796 ft 409 kts 307°
2026-05-04 17:30 27.44398 49.59684 25796 ft 409 kts 306°
2026-05-04 17:31 27.48145 49.54877 25794 ft 411 kts 311°
2026-05-04 17:31 27.54848 49.48706 25793 ft 416 kts 317°
2026-05-04 17:32 27.59367 49.44652 25797 ft 415 kts 317°
2026-05-04 17:33 27.66146 49.38565 25797 ft 415 kts 317°
2026-05-04 17:33 27.68406 49.36535 25797 ft 415 kts 317°
2026-05-04 17:34 27.75186 49.30438 25795 ft 415 kts 316°
2026-05-04 17:34 27.77446 49.28404 25793 ft 416 kts 316°
2026-05-04 17:35 27.84234 49.22285 25791 ft 416 kts 316°
2026-05-04 17:35 27.88912 49.18402 25790 ft 421 kts 324°
2026-05-04 17:35 27.91455 49.16751 25783 ft 423 kts 324°
2026-05-04 17:36 27.94012 49.15081 25578 ft 424 kts 324°
2026-05-04 17:36 27.96556 49.13411 25343 ft 422 kts 324°
2026-05-04 17:36 27.99091 49.11747 25110 ft 420 kts 324°
2026-05-04 17:36 28.01609 49.10092 24879 ft 419 kts 325°
2026-05-04 17:37 28.04128 49.08435 24654 ft 418 kts 325°
2026-05-04 17:37 28.06645 49.06780 24422 ft 418 kts 325°
2026-05-04 17:37 28.09161 49.05124 24202 ft 418 kts 325°
2026-05-04 17:37 28.11671 49.03473 23983 ft 417 kts 325°
2026-05-04 17:38 28.14177 49.01823 23764 ft 416 kts 325°
2026-05-04 17:38 28.16642 49.00199 23542 ft 415 kts 325°
2026-05-04 17:38 28.19138 48.98553 23313 ft 414 kts 325°
2026-05-04 17:38 28.21621 48.96916 23050 ft 412 kts 325°
2026-05-04 17:39 28.26548 48.93667 22523 ft 407 kts 325°
2026-05-04 17:39 28.28986 48.92057 22280 ft 405 kts 325°
2026-05-04 17:39 28.31414 48.90452 22029 ft 403 kts 325°
2026-05-04 17:40 28.33828 48.88854 21781 ft 400 kts 325°
2026-05-04 17:40 28.36226 48.87266 21529 ft 398 kts 325°
2026-05-04 17:40 28.38544 48.85730 21288 ft 396 kts 325°
2026-05-04 17:40 28.40914 48.84159 21040 ft 394 kts 325°
2026-05-04 17:41 28.43280 48.82590 20794 ft 392 kts 325°
2026-05-04 17:41 28.45624 48.81035 20558 ft 390 kts 325°
2026-05-04 17:41 28.47957 48.79487 20318 ft 387 kts 325°
2026-05-04 17:41 28.50279 48.77945 20083 ft 385 kts 325°
2026-05-04 17:42 28.52584 48.76413 19841 ft 383 kts 325°
2026-05-04 17:42 28.54876 48.74876 19606 ft 381 kts 323°
2026-05-04 17:42 28.56992 48.73106 19373 ft 375 kts 315°
2026-05-04 17:42 28.58838 48.71044 19141 ft 370 kts 308°
2026-05-04 17:43 28.60418 48.68762 18912 ft 366 kts 303°
2026-05-04 17:43 28.61947 48.66447 18694 ft 365 kts 304°
2026-05-04 17:43 28.63480 48.64146 18466 ft 364 kts 304°
2026-05-04 17:43 28.65003 48.61862 18240 ft 361 kts 304°
2026-05-04 17:44 28.66523 48.59580 18010 ft 360 kts 304°
2026-05-04 17:44 28.68014 48.57338 17842 ft 354 kts 304°
2026-05-04 17:44 28.69460 48.55166 17739 ft 342 kts 304°
2026-05-04 17:44 28.70870 48.53046 17619 ft 329 kts 304°
2026-05-04 17:45 28.72247 48.50988 17479 ft 316 kts 306°
2026-05-04 17:45 28.73742 48.49227 17180 ft 314 kts 315°
2026-05-04 17:45 28.75509 48.47794 16929 ft 310 kts 325°
2026-05-04 17:45 28.77408 48.46627 16683 ft 311 kts 326°
2026-05-04 17:46 28.79314 48.45450 16424 ft 312 kts 326°
2026-05-04 17:46 28.81221 48.44265 16179 ft 311 kts 326°
2026-05-04 17:46 28.83117 48.43086 15938 ft 309 kts 326°
2026-05-04 17:46 28.85005 48.41912 15691 ft 310 kts 326°
2026-05-04 17:47 28.86898 48.40734 15447 ft 309 kts 326°
2026-05-04 17:47 28.88777 48.39566 15209 ft 307 kts 326°
2026-05-04 17:47 28.90657 48.38398 14972 ft 306 kts 326°
2026-05-04 17:47 28.92524 48.37237 14677 ft 305 kts 326°
2026-05-04 17:48 28.94376 48.36084 14324 ft 303 kts 326°
2026-05-04 17:48 28.96222 48.34936 13975 ft 300 kts 325°
2026-05-04 17:48 28.98048 48.33799 13627 ft 297 kts 325°
2026-05-04 17:48 28.99856 48.32672 13252 ft 294 kts 325°
2026-05-04 17:49 29.01641 48.31559 12921 ft 290 kts 326°
2026-05-04 17:49 29.03427 48.30442 12651 ft 297 kts 326°
2026-05-04 17:49 29.05253 48.29297 12406 ft 300 kts 326°
2026-05-04 17:49 29.07082 48.28155 12075 ft 299 kts 326°
2026-05-04 17:50 29.08904 48.27019 11724 ft 297 kts 326°
2026-05-04 17:50 29.10703 48.25896 11425 ft 291 kts 327°
2026-05-04 17:50 29.12445 48.24812 11321 ft 279 kts 326°
2026-05-04 17:50 29.14113 48.23774 11218 ft 266 kts 326°
2026-05-04 17:51 29.15712 48.22776 11032 ft 258 kts 326°
2026-05-04 17:51 29.17288 48.21787 10799 ft 261 kts 326°
2026-05-04 17:51 29.18860 48.20798 10640 ft 261 kts 326°
2026-05-04 17:51 29.20448 48.19801 10348 ft 260 kts 327°
2026-05-04 17:52 29.22033 48.18807 10029 ft 260 kts 327°
2026-05-04 17:52 29.23611 48.17818 9688 ft 259 kts 327°
2026-05-04 17:52 29.25214 48.16813 9323 ft 259 kts 327°
2026-05-04 17:52 29.26764 48.15841 8981 ft 257 kts 327°
2026-05-04 17:53 29.28331 48.14858 8643 ft 256 kts 328°
2026-05-04 17:53 29.29891 48.13879 8335 ft 254 kts 328°
2026-05-04 17:53 29.31401 48.12935 8218 ft 242 kts 328°
2026-05-04 17:53 29.32872 48.12013 7879 ft 240 kts 328°
2026-05-04 17:54 29.34332 48.11095 7515 ft 239 kts 328°
2026-05-04 17:54 29.35787 48.10180 7172 ft 238 kts 328°
2026-05-04 17:54 29.37234 48.09273 6846 ft 236 kts 329°
2026-05-04 17:54 29.38671 48.08368 6531 ft 235 kts 329°
2026-05-04 17:55 29.40099 48.07462 6198 ft 233 kts 329°
2026-05-04 17:55 29.41507 48.06562 5906 ft 230 kts 329°
2026-05-04 17:55 29.42890 48.05669 5637 ft 226 kts 329°
2026-05-04 17:55 29.44228 48.04798 5382 ft 222 kts 329°
2026-05-04 17:56 29.45557 48.03928 5142 ft 218 kts 329°
2026-05-04 17:56 29.46858 48.03076 4909 ft 213 kts 328°
2026-05-04 17:56 29.48038 48.02156 4742 ft 203 kts 310°
2026-05-04 17:56 29.48618 48.00673 4520 ft 208 kts 275°
2026-05-04 17:57 29.48549 47.99025 4287 ft 206 kts 264°
2026-05-04 17:57 29.48417 47.97390 4045 ft 206 kts 263°
2026-05-04 17:57 29.48251 47.95754 3803 ft 207 kts 255°
2026-05-04 17:57 29.47731 47.94255 3572 ft 198 kts 244°
2026-05-04 17:58 29.47167 47.92854 3326 ft 190 kts 244°
2026-05-04 17:58 29.46604 47.91449 3105 ft 195 kts 243°
2026-05-04 17:58 29.46050 47.90049 3012 ft 193 kts 244°
2026-05-04 17:58 29.45493 47.88638 3001 ft 193 kts 243°
2026-05-04 17:59 29.44641 47.87493 3005 ft 191 kts 208°
2026-05-04 17:59 29.43399 47.87001 2995 ft 187 kts 194°
2026-05-04 17:59 29.40916 47.86222 2541 ft 186 kts 193°
2026-05-04 18:00 29.40088 47.85959 2513 ft 186 kts 191°
2026-05-04 18:00 29.38875 47.85867 2492 ft 161 kts 170°
2026-05-04 18:00 29.37866 47.86176 2513 ft 144 kts 158°
2026-05-04 18:00 29.36989 47.86615 2502 ft 134 kts 153°
2026-05-04 18:01 29.36141 47.87078 2505 ft 135 kts 154°
2026-05-04 18:01 29.35292 47.87531 2507 ft 135 kts 154°
2026-05-04 18:01 29.34438 47.87988 2462 ft 136 kts 153°
2026-05-04 18:02 29.32744 47.88894 2161 ft 134 kts 153°
2026-05-04 18:02 29.31904 47.89343 1992 ft 134 kts 154°
2026-05-04 18:02 29.31065 47.89791 1827 ft 133 kts 154°
2026-05-04 18:02 29.30230 47.90237 1663 ft 132 kts 153°
2026-05-04 18:03 29.29404 47.90679 1498 ft 131 kts 153°
2026-05-04 18:03 29.28576 47.91121 1332 ft 132 kts 154°
2026-05-04 18:03 29.27744 47.91565 1169 ft 132 kts 154°
2026-05-04 18:03 29.26915 47.92007 1009 ft 131 kts 153°
2026-05-04 18:04 29.26090 47.92448 865 ft 134 kts 154°
2026-05-04 18:04 29.25251 47.92896 706 ft 133 kts 154°
2026-05-04 18:04 29.23581 47.93787 366 ft 131 kts 154°
2026-05-04 18:05 29.22760 47.94220 205 ft 129 kts 154°
2026-05-04 18:05 29.21989 47.94645 165 ft 103 kts 154°
2026-05-04 18:05 29.21523 47.94895 167 ft 46 kts 154°
2026-05-04 18:05 29.21373 47.95013 167 ft 20 kts 131°
2026-05-04 18:06 29.21328 47.95234 164 ft 15 kts 359°
2026-05-04 18:06 29.21432 47.95180 165 ft 17 kts 332°
2026-05-04 18:06 29.21542 47.95122 167 ft 18 kts 335°
2026-05-04 18:07 29.21669 47.95054 166 ft 22 kts 334°
2026-05-04 18:07 29.21812 47.94977 166 ft 23 kts 335°
2026-05-04 18:07 29.21942 47.94974 161 ft 21 kts 52°
2026-05-04 18:07 29.22009 47.95131 160 ft 23 kts 65°
2026-05-04 18:08 29.22076 47.95297 160 ft 20 kts 64°
2026-05-04 18:08 29.22139 47.95451 160 ft 22 kts 65°
2026-05-04 18:08 29.22207 47.95617 160 ft 24 kts 65°
2026-05-04 18:08 29.22275 47.95784 160 ft 23 kts 65°
2026-05-04 18:09 29.22414 47.96117 159 ft 23 kts 64°
2026-05-04 18:09 29.22557 47.96474 159 ft 25 kts 64°
2026-05-04 18:10 29.22603 47.96580 159 ft 7 kts 63°
2026-05-04 18:10 29.22642 47.96626 159 ft 10 kts 20°
2026-05-04 18:10 29.22716 47.96610 159 ft 12 kts 341°
2026-05-04 18:10 29.22761 47.96585 160 ft 6 kts 333°
2026-05-04 18:11 29.22786 47.96571 160 ft 0 kts 333°
2026-05-04 18:14 29.22797 47.96564 160 ft 4 kts 333°
2026-05-04 18:14 29.22867 47.96525 160 ft 20 kts 334°
2026-05-04 18:14 29.22945 47.96484 161 ft 1 kts 342°
2026-05-04 18:15 29.22985 47.96482 161 ft 0 kts
2026-05-04 18:17 29.23054 47.96615 162 ft 18 kts 65°
2026-05-04 18:17 29.23110 47.96753 164 ft 20 kts 65°
2026-05-04 18:17 29.23207 47.96847 165 ft 0 kts 321°